KD9SK-13 Weather Reports


Display with metric or nautical units.
time (UTC)temp
F
wind
direction
speed
MPH
gust
MPH
rain 1hr
in
rain 24hr
in
rain mn
in
humidity
%
barometer
mb
20260510061004 69 174 0.0 0.0 0.00 0.00 0.00 91 1013.7
20260510060504 69 174 0.0 0.0 0.00 0.00 0.00 91 1013.7
20260510055959 69 174 0.0 0.0 0.00 0.00 0.00 91 1013.6
20260510055458 69 174 0.0 0.0 0.00 0.00 0.00 90 1013.5
20260510054959 69 174 0.0 0.0 0.00 0.00 0.00 90 1013.7
20260510053458 70 174 0.0 0.0 0.00 0.00 0.00 90 1013.5
20260510052959 70 174 0.0 0.0 0.00 0.00 0.00 90 1013.5
20260510052459 70 174 0.0 0.0 0.00 0.00 0.00 90 1013.4
20260510051958 70 149 0.0 0.0 0.00 0.00 0.00 89 1013.3
20260510051459 70 139 0.0 0.0 0.00 0.00 0.00 89 1013.1
20260510050958 70 139 0.0 0.0 0.00 0.00 0.00 89 1013.1
20260510050500 71 139 0.0 1.0 0.00 0.00 0.00 88 1013.0
20260510045959 71 139 0.0 0.0 0.00 0.00 0.00 88 1013.0
20260510045459 71 139 0.0 1.0 0.00 0.00 0.00 88 1012.9
20260510044958 71 139 0.0 1.0 0.00 0.00 0.00 88 1012.9
20260510044459 71 146 0.0 0.0 0.00 0.00 0.00 87 1012.8
20260510043958 71 146 0.0 1.0 0.00 0.00 0.00 87 1012.8
20260510043459 71 86 0.0 1.0 0.00 0.00 0.00 87 1012.8
20260510042958 71 86 1.0 3.0 0.00 0.00 0.00 87 1012.8
20260510042458 71 110 0.0 0.0 0.00 0.00 0.00 86 1012.7
20260510041958 71 189 0.0 1.0 0.00 0.00 0.00 86 1012.7
20260510041458 72 135 0.0 1.0 0.00 0.00 0.00 85 1012.7
20260510040959 72 77 0.0 1.0 0.00 0.00 0.00 85 1012.8
20260510040458 72 77 1.0 5.0 0.00 0.00 0.00 85 1012.7
20260510035958 72 140 0.0 2.0 0.00 0.00 0.00 84 1012.6
20260510034959 72 202 1.0 3.0 0.00 0.00 0.00 83 1012.4
20260510034459 72 128 1.0 3.0 0.00 0.00 0.00 83 1012.4
20260510033958 72 135 1.0 6.0 0.00 0.00 0.00 83 1012.5
20260510033459 72 154 1.0 2.0 0.00 0.00 0.00 83 1012.5
20260510032959 72 82 1.0 3.0 0.00 0.00 0.00 83 1012.5
20260510032459 73 129 1.0 5.0 0.00 0.00 0.00 83 1012.4
20260510031959 73 358 1.0 2.0 0.00 0.00 0.00 83 1012.4
20260510031459 73 127 0.0 3.0 0.00 0.00 0.00 83 1012.4
20260510030958 73 225 0.0 2.0 0.00 0.00 0.00 83 1012.3
20260510025959 73 129 0.0 1.0 0.00 0.00 0.00 82 1012.1
20260510025459 73 110 1.0 2.0 0.00 0.00 0.00 82 1012.0
20260510024959 73 117 0.0 3.0 0.00 0.00 0.00 82 1011.9
20260510024459 73 112 1.0 3.0 0.00 0.00 0.00 82 1011.9
20260510023459 74 165 0.0 1.0 0.00 0.00 0.00 81 1011.8
20260510022958 74 116 0.0 1.0 0.00 0.00 0.00 81 1011.6
20260510022459 74 127 1.0 2.0 0.00 0.00 0.00 80 1011.5
20260510021958 74 121 0.0 1.0 0.00 0.00 0.00 80 1011.5
20260510021459 74 113 1.0 2.0 0.00 0.00 0.00 80 1011.5
20260510020959 74 132 0.0 1.0 0.00 0.00 0.00 80 1011.4
20260510015958 74 109 0.0 1.0 0.00 0.00 0.00 80 1011.2
20260510015459 74 109 0.0 1.0 0.00 0.00 0.00 80 1011.2
20260510014959 74 109 0.0 0.0 0.00 0.00 0.00 79 1011.2
20260510014458 74 107 0.0 0.0 0.00 0.00 0.00 79 1011.1
20260510013958 74 107 0.0 0.0 0.00 0.00 0.00 78 1011.1
20260510013459 75 107 0.0 1.0 0.00 0.00 0.00 78 1011.1
20260510013000 75 107 0.0 1.0 0.00 0.00 0.00 77 1010.9
20260510012458 75 107 0.0 1.0 0.00 0.00 0.00 77 1011.0
20260510011959 76 107 0.0 2.0 0.00 0.00 0.00 76 1010.9
20260510011458 76 92 0.0 2.0 0.00 0.00 0.00 76 1010.9
20260510010959 76 236 0.0 1.0 0.00 0.00 0.00 75 1010.8
20260510010500 77 194 0.0 0.0 0.00 0.00 0.00 74 1010.7
20260510005958 77 201 1.0 3.0 0.00 0.00 0.00 74 1010.6
20260510005459 77 101 0.0 1.0 0.00 0.00 0.00 73 1010.6
20260510004958 78 94 1.0 2.0 0.00 0.00 0.00 72 1010.6
20260510004458 78 119 0.0 2.0 0.00 0.00 0.00 71 1010.5
20260510003958 78 81 1.0 5.0 0.00 0.00 0.00 71 1010.4
20260510003500 79 115 1.0 3.0 0.00 0.00 0.00 70 1010.4
20260510002959 79 133 0.0 2.0 0.00 0.00 0.00 69 1010.4
20260510002459 80 120 1.0 3.0 0.00 0.00 0.00 67 1010.3
20260510001958 80 112 1.0 3.0 0.00 0.00 0.00 67 1010.2
20260510001458 80 107 2.0 5.0 0.00 0.00 0.00 66 1010.2
20260510000959 81 123 0.0 3.0 0.00 0.00 0.00 65 1010.2
20260510000459 81 191 1.0 3.0 0.00 0.00 0.00 63 1010.1
20260509235959 81 102 1.0 3.0 0.00 0.00 0.00 62 1010.0
20260509235458 82 104 0.0 1.0 0.00 0.00 0.00 62 1010.0
20260509234958 82 104 1.0 3.0 0.00 0.00 0.00 62 1010.0
20260509234458 83 132 0.0 2.0 0.00 0.00 0.00 60 1009.8
20260509233958 84 128 0.0 2.0 0.00 0.00 0.00 58 1009.8
20260509233459 84 125 0.0 1.0 0.00 0.00 0.00 56 1009.8
20260509232958 85 125 1.0 2.0 0.00 0.00 0.00 54 1009.8
20260509232459 86 113 0.0 3.0 0.00 0.00 0.00 55 1009.8
20260509231958 86 115 0.0 1.0 0.00 0.00 0.00 57 1009.7
20260509231458 85 115 0.0 1.0 0.00 0.00 0.00 60 1009.7
20260509230958 84 115 1.0 3.0 0.00 0.00 0.00 57 1009.7
20260509225958 83 143 0.0 0.0 0.00 0.00 0.00 58 1009.6
20260509225459 83 143 0.0 0.0 0.00 0.00 0.00 58 1009.6
20260509224959 83 143 0.0 2.0 0.00 0.00 0.00 58 1009.6
20260509224458 83 123 0.0 1.0 0.00 0.00 0.00 60 1009.6
20260509222958 84 134 0.0 1.0 0.00 0.00 0.00 55 1009.6
20260509222458 84 134 0.0 2.0 0.00 0.00 0.00 56 1009.5
20260509221959 85 126 0.0 3.0 0.00 0.00 0.00 54 1009.5
20260509221458 85 87 0.0 1.0 0.00 0.00 0.00 55 1009.5
20260509220959 84 87 0.0 3.0 0.00 0.00 0.00 59 1009.5
20260509215958 83 124 1.0 3.0 0.00 0.00 0.00 62 1009.5
20260509215459 83 103 0.0 2.0 0.00 0.00 0.00 58 1009.4
20260509214500 83 125 2.0 3.0 0.00 0.00 0.00 58 1009.5
20260509213959 83 129 2.0 3.0 0.00 0.00 0.00 58 1009.5
20260509213459 83 121 2.0 3.0 0.00 0.00 0.00 58 1009.5
20260509212458 82 140 1.0 2.0 0.00 0.00 0.00 60 1009.6
20260509212000 82 235 0.0 3.0 0.00 0.00 0.00 59 1009.7
20260509211458 82 137 2.0 5.0 0.00 0.00 0.00 60 1009.7
20260509210958 82 105 1.0 2.0 0.00 0.00 0.00 60 1009.8
20260509210459 81 123 0.0 1.0 0.00 0.00 0.00 60 1009.7
20260509205459 81 124 0.0 1.0 0.00 0.00 0.00 64 1010.0
20260509204958 81 124 0.0 1.0 0.00 0.00 0.00 62 1010.0
20260509204459 81 110 0.0 1.0 0.00 0.00 0.00 61 1010.0
20260509204000 82 117 0.0 1.0 0.00 0.00 0.00 60 1010.1
20260509203459 82 131 0.0 0.0 0.00 0.00 0.00 60 1010.1
20260509202958 82 131 0.0 2.0 0.00 0.00 0.00 59 1010.1
20260509202458 83 111 0.0 1.0 0.00 0.00 0.00 58 1010.1
20260509201959 83 121 1.0 3.0 0.00 0.00 0.00 60 1010.3
20260509201500 83 125 1.0 2.0 0.00 0.00 0.00 60 1010.4
20260509200959 82 133 1.0 2.0 0.00 0.00 0.00 58 1010.4
20260509200459 82 163 0.0 1.0 0.00 0.00 0.00 59 1010.5
20260509195959 82 253 1.0 1.0 0.00 0.00 0.00 59 1010.5
20260509195458 83 260 1.0 2.0 0.00 0.00 0.00 61 1010.6
20260509195000 82 129 0.0 3.0 0.00 0.00 0.00 60 1010.6
20260509194458 82 203 1.0 3.0 0.00 0.00 0.00 63 1010.7
20260509193459 81 128 0.0 3.0 0.00 0.00 0.00 61 1010.8
20260509192958 82 125 1.0 3.0 0.00 0.00 0.00 62 1010.8
20260509191959 82 118 2.0 3.0 0.00 0.00 0.00 61 1010.8
20260509191459 82 122 3.0 6.0 0.00 0.00 0.00 58 1010.8
20260509190959 82 124 1.0 3.0 0.00 0.00 0.00 61 1010.9
20260509190500 81 121 2.0 3.0 0.00 0.00 0.00 62 1010.9
20260509185958 80 123 1.0 2.0 0.00 0.00 0.00 62 1010.9
20260509184959 81 8 0.0 2.0 0.00 0.00 0.00 59 1010.9
20260509184459 82 8 0.0 2.0 0.00 0.00 0.00 59 1010.9
20260509183959 82 8 1.0 2.0 0.00 0.00 0.00 58 1011.0
20260509183500 82 348 1.0 2.0 0.00 0.00 0.00 59 1010.9
20260509182959 83 131 0.0 3.0 0.00 0.00 0.00 56 1010.9
20260509182459 83 8 1.0 3.0 0.00 0.00 0.00 56 1011.0
20260509181959 83 103 1.0 2.0 0.00 0.00 0.00 57 1011.0
20260509181459 82 136 0.0 2.0 0.00 0.00 0.00 58 1011.1
20260509175959 82 148 0.0 1.0 0.00 0.00 0.00 61 1011.2
20260509175500 82 3 0.0 2.0 0.00 0.00 0.00 59 1011.3
20260509174959 81 112 1.0 2.0 0.00 0.00 0.00 58 1011.2
20260509174459 81 281 1.0 2.0 0.00 0.00 0.00 58 1011.3
20260509173959 81 5 0.0 2.0 0.00 0.00 0.00 60 1011.3
20260509173500 82 6 1.0 2.0 0.00 0.00 0.00 59 1011.4
20260509173000 82 5 0.0 3.0 0.00 0.00 0.00 57 1011.4
20260509172459 82 40 1.0 2.0 0.00 0.00 0.00 56 1011.6
20260509171959 83 331 1.0 2.0 0.00 0.00 0.00 58 1011.6
20260509171459 83 257 0.0 3.0 0.00 0.00 0.00 58 1011.6
20260509170959 82 113 1.0 2.0 0.00 0.00 0.00 60 1011.5
20260509170459 83 130 1.0 3.0 0.00 0.00 0.00 58 1011.6
20260509165959 83 274 1.0 2.0 0.00 0.00 0.00 58 1011.6
20260509165458 83 122 1.0 2.0 0.00 0.00 0.00 59 1011.6
20260509165000 82 104 0.0 2.0 0.00 0.00 0.00 62 1011.5
20260509164459 82 235 0.0 1.0 0.00 0.00 0.00 60 1011.5
20260509163959 81 286 0.0 2.0 0.00 0.00 0.00 61 1011.4
20260509163459 81 126 0.0 2.0 0.00 0.00 0.00 62 1011.4
20260509162959 80 133 0.0 2.0 0.00 0.00 0.00 66 1011.4
20260509162459 79 136 0.0 3.0 0.00 0.00 0.00 68 1011.4
20260509161959 78 263 1.0 3.0 0.00 0.00 0.00 65 1011.4
20260509161458 77 347 1.0 3.0 0.00 0.00 0.00 66 1011.4
20260509160958 78 296 2.0 3.0 0.00 0.00 0.00 64 1011.4
20260509160459 78 322 1.0 3.0 0.00 0.00 0.00 65 1011.4
20260509155959 78 233 1.0 2.0 0.00 0.00 0.00 68 1011.4
20260509155459 77 326 1.0 3.0 0.00 0.00 0.00 66 1011.4
20260509153959 76 304 1.0 2.0 0.00 0.00 0.00 68 1011.3
20260509153459 76 284 1.0 3.0 0.00 0.00 0.00 70 1011.3
20260509151958 75 357 1.0 2.0 0.00 0.00 0.00 73 1011.4
20260509151459 75 349 1.0 2.0 0.00 0.00 0.00 73 1011.4
20260509150959 74 301 1.0 2.0 0.00 0.00 0.00 73 1011.5
20260509150459 74 4 1.0 2.0 0.00 0.00 0.00 74 1011.5
20260509145958 73 358 1.0 2.0 0.00 0.00 0.00 75 1011.6
20260509145459 73 348 1.0 2.0 0.00 0.00 0.00 75 1011.6
20260509144959 73 333 1.0 2.0 0.00 0.00 0.00 76 1011.7
20260509144459 72 328 1.0 3.0 0.00 0.00 0.00 77 1011.7
20260509143959 71 296 0.0 3.0 0.00 0.00 0.00 77 1011.7
20260509143500 71 3 1.0 3.0 0.00 0.00 0.00 77 1011.8
20260509142958 71 247 1.0 2.0 0.00 0.00 0.00 78 1011.8
20260509141959 71 279 1.0 2.0 0.00 0.00 0.00 79 1011.8
20260509140958 69 266 1.0 2.0 0.00 0.00 0.00 82 1011.8
20260509140459 69 210 0.0 2.0 0.00 0.00 0.00 84 1011.8
20260509135459 68 210 0.0 2.0 0.00 0.00 0.00 87 1012.0
20260509134959 67 210 0.0 1.0 0.00 0.00 0.00 88 1012.0
20260509134459 67 210 0.0 2.0 0.00 0.00 0.00 89 1012.0
20260509133959 67 210 0.0 1.0 0.00 0.00 0.00 89 1011.9
20260509133459 66 210 1.0 2.0 0.00 0.00 0.00 89 1011.9
20260509133000 66 210 0.0 2.0 0.00 0.00 0.00 89 1011.9
20260509132459 66 188 0.0 1.0 0.00 0.00 0.00 90 1012.0
20260509131959 65 135 0.0 1.0 0.00 0.00 0.00 91 1012.0
20260509131459 65 135 0.0 1.0 0.00 0.00 0.00 91 1012.0
20260509130959 65 135 0.0 0.0 0.00 0.00 0.00 92 1012.0
20260509130500 64 135 0.0 0.0 0.00 0.00 0.00 93 1011.9
20260509125958 64 135 0.0 0.0 0.00 0.00 0.00 94 1011.9
20260509125459 63 135 0.0 0.0 0.00 0.00 0.00 95 1011.8
20260509124958 62 135 0.0 0.0 0.00 0.00 0.00 96 1011.8
20260509124459 61 135 0.0 0.0 0.00 0.00 0.00 96 1011.7
20260509123959 61 135 0.0 1.0 0.00 0.00 0.00 96 1011.6
20260509123459 60 135 0.0 0.0 0.00 0.00 0.00 96 1011.5
20260509122959 60 135 0.0 0.0 0.00 0.00 0.00 95 1011.5
20260509122459 59 135 0.0 0.0 0.00 0.00 0.00 95 1011.5
20260509121959 59 135 0.0 0.0 0.00 0.00 0.00 95 1011.3
20260509120959 58 135 0.0 0.0 0.00 0.00 0.00 95 1011.2
20260509120459 58 135 0.0 0.0 0.00 0.00 0.00 95 1011.2
20260509115958 58 135 0.0 0.0 0.00 0.00 0.00 95 1011.2
20260509115459 58 135 0.0 0.0 0.00 0.00 0.00 95 1011.1
20260509114959 57 135 0.0 0.0 0.00 0.00 0.00 95 1011.0
20260509114459 57 135 0.0 0.0 0.00 0.00 0.00 95 1010.9
20260509113959 57 135 0.0 0.0 0.00 0.00 0.00 95 1010.9
20260509113459 57 135 0.0 0.0 0.00 0.00 0.00 95 1010.9
20260509112459 57 135 0.0 0.0 0.00 0.00 0.00 95 1010.9
20260509111959 57 135 0.0 0.0 0.00 0.00 0.00 95 1010.8
20260509111500 57 135 0.0 0.0 0.00 0.00 0.00 95 1010.7
20260509110958 57 135 0.0 0.0 0.00 0.00 0.00 95 1010.6
20260509105459 57 135 0.0 0.0 0.00 0.00 0.00 94 1010.4
20260509104959 57 135 0.0 0.0 0.00 0.00 0.00 94 1010.3
20260509104459 57 135 0.0 0.0 0.00 0.00 0.00 94 1010.3
20260509103959 58 135 0.0 0.0 0.00 0.00 0.00 94 1010.3
20260509103459 58 135 0.0 0.0 0.00 0.00 0.00 94 1010.1
20260509102959 58 135 0.0 0.0 0.00 0.00 0.00 94 1010.0
20260509102458 58 135 0.0 0.0 0.00 0.00 0.00 94 1009.8
20260509101959 58 135 0.0 0.0 0.00 0.00 0.00 94 1009.7
20260509101500 58 135 0.0 0.0 0.00 0.00 0.00 94 1009.6
20260509100959 58 135 0.0 0.0 0.00 0.00 0.00 94 1009.5
20260509100500 58 135 0.0 0.0 0.00 0.00 0.00 93 1009.6
20260509095459 59 135 0.0 0.0 0.00 0.00 0.00 93 1009.6
20260509094959 59 135 0.0 0.0 0.00 0.00 0.00 93 1009.7
20260509094459 59 135 0.0 0.0 0.00 0.00 0.00 93 1009.7
20260509093959 59 135 0.0 1.0 0.00 0.00 0.00 93 1009.7
20260509093459 60 135 0.0 0.0 0.00 0.00 0.00 93 1009.7
20260509092459 60 135 0.0 0.0 0.00 0.00 0.00 93 1009.8
20260509091459 60 135 0.0 0.0 0.00 0.00 0.00 93 1010.0
20260509090500 61 135 0.0 0.0 0.00 0.00 0.00 93 1010.0
20260509085959 61 135 0.0 1.0 0.00 0.00 0.00 94 1010.2
20260509084959 60 135 0.0 0.0 0.00 0.00 0.00 91 1010.0
20260509084459 61 135 0.0 0.0 0.00 0.00 0.00 91 1009.8
20260509083459 61 135 0.0 0.0 0.00 0.00 0.00 91 1009.7
20260509082458 62 135 0.0 0.0 0.00 0.00 0.00 92 1009.7
20260509081959 62 135 0.0 0.0 0.00 0.00 0.00 91 1009.7
20260509081459 62 135 0.0 0.0 0.00 0.00 0.00 91 1009.6
20260509080959 62 135 0.0 0.0 0.00 0.00 0.00 90 1009.8
20260509080459 62 135 0.0 0.0 0.00 0.00 0.00 90 1009.9
20260509075959 63 135 0.0 0.0 0.00 0.00 0.00 89 1009.8
20260509075500 63 135 0.0 0.0 0.00 0.00 0.00 89 1010.0
20260509074959 63 135 0.0 0.0 0.00 0.00 0.00 89 1010.1
20260509074459 63 135 0.0 0.0 0.00 0.00 0.00 89 1010.2
20260509073959 63 135 0.0 1.0 0.00 0.00 0.00 89 1010.3
20260509073459 63 135 0.0 0.0 0.00 0.00 0.00 89 1010.4
20260509073000 63 135 0.0 0.0 0.00 0.00 0.00 89 1010.5
20260509071959 62 135 0.0 0.0 0.00 0.00 0.00 91 1010.4
20260509071459 62 135 0.0 1.0 0.00 0.00 0.00 92 1010.4
20260509070959 62 135 0.0 0.0 0.00 0.00 0.00 93 1010.4
20260509070459 61 135 0.0 0.0 0.00 0.00 0.00 94 1010.6
20260509065959 60 135 0.0 0.0 0.00 0.00 0.00 94 1010.6
20260509065500 60 135 0.0 0.0 0.00 0.00 0.00 94 1010.6
20260509065000 59 135 0.0 1.0 0.00 0.00 0.00 94 1010.6
20260509064459 59 135 0.0 0.0 0.00 0.00 0.00 93 1010.5
20260509063959 59 135 0.0 0.0 0.00 0.00 0.00 93 1010.5
20260509063459 59 135 0.0 0.0 0.00 0.00 0.00 93 1010.6
20260509063000 59 135 0.0 0.0 0.00 0.00 0.00 92 1010.6
20260509062459 59 135 0.0 0.0 0.00 0.00 0.00 92 1010.6
20260509061959 60 135 0.0 0.0 0.00 0.00 0.00 92 1010.8
20260509061459 60 135 0.0 0.0 0.00 0.00 0.00 92 1011.0